EW0139 Weather Reports


time (UTC)temp
F
wind
direction
speed
knots
gust
knots
rain 1hr
in
rain 24hr
in
rain mn
in
humidity
%
barometer
mb
20260906215243 79 30 7.8 12.2 0.00 0.00 0.00 59 1011.1
20260906213751 78 6 4.3 11.3 0.00 0.00 0.00 61 1011.1
20260906212306 77 355 3.5 12.2 0.00 0.00 0.00 63 1011.4
20260906210750 75 45 4.3 17.4 0.00 0.00 0.00 65 1012.3
20260906205242 75 359 6.1 17.4 0.00 0.00 0.00 65 1012.2
20260906203754 76 55 5.2 13.9 0.00 0.00 0.00 65 1012.4
20260906202306 79 3 3.5 12.2 0.00 0.00 0.00 60 1012.1
20260906200759 81 36 4.3 13.0 0.00 0.00 0.00 57 1012.0
20260906195248 82 2 2.6 10.4 0.00 0.00 0.00 56 1012.1
20260906193801 80 35 4.3 12.2 0.00 0.00 0.00 59 1012.1
20260906192248 80 40 5.2 6.1 0.00 0.00 0.00 60 1012.3
20260906190756 79 51 3.5 6.1 0.00 0.00 0.00 62 1012.6
20260906185249 79 42 4.3 7.8 0.00 0.00 0.00 63 1012.6
20260906183820 79 7 0.0 6.1 0.00 0.00 0.00 62 1012.0
20260906182251 79 61 3.5 8.7 0.00 0.00 0.00 64 1012.0
20260906180740 77 43 2.6 7.8 0.00 0.00 0.00 65 1012.5
20260906175251 76 46 3.5 8.7 0.00 0.00 0.00 67 1012.2
20260906173803 75 46 3.5 6.1 0.00 0.00 0.00 68 1012.8
20260906172250 76 38 3.5 7.8 0.00 0.00 0.00 67 1013.1
20260906170742 74 341 5.2 5.2 0.00 0.00 0.00 69 1013.0
20260906165253 74 278 0.9 4.3 0.00 0.00 0.00 69 1013.6
20260906163742 74 279 2.6 5.2 0.00 0.00 0.00 69 1013.7
20260906162255 74 315 8.7 8.7 0.00 0.00 0.00 69 1013.1
20260906160743 74 331 0.0 4.3 0.00 0.00 0.00 70 1013.5
20260906155313 74 329 0.9 6.1 0.00 0.00 0.00 69 1013.4
20260906153741 74 39 0.9 5.2 0.00 0.00 0.00 68 1013.4
20260906152249 72 30 5.2 5.2 0.00 0.00 0.00 71 1013.1
20260906150742 70 323 1.7 6.1 0.00 0.00 0.00 74 1013.3
20260906145251 69 327 5.2 9.6 0.00 0.00 0.00 75 1013.7
20260906143743 68 316 6.1 8.7 0.00 0.00 0.00 77 1014.0
20260906142251 67 297 4.3 10.4 0.00 0.00 0.00 78 1014.1
20260906140758 66 295 5.2 10.4 0.00 0.00 0.00 79 1014.2
20260906135249 65 279 5.2 9.6 0.00 0.00 0.00 80 1014.1
20260906133759 65 274 6.1 9.6 0.00 0.00 0.00 81 1014.2
20260906132251 65 276 7.8 8.7 0.00 0.00 0.00 81 1014.1
20260906130740 65 262 1.7 5.2 0.00 0.00 0.00 81 1014.0
20260906125309 65 223 3.5 7.0 0.00 0.00 0.00 82 1014.0
20260906123740 64 196 2.6 6.1 0.00 0.00 0.00 81 1013.9
20260906122308 66 338 0.0 4.3 0.00 0.00 0.00 79 1013.3
20260906120740 67 351 1.7 5.2 0.00 0.00 0.00 79 1012.7
20260906115307 67 168 0.0 5.2 0.00 0.00 0.00 79 1013.6
20260906113813 67 315 0.9 4.3 0.00 0.00 0.00 78 1013.3
20260906112248 68 274 0.9 4.3 0.00 0.00 0.00 77 1013.6
20260906110755 68 53 2.6 11.3 0.00 0.00 0.00 77 1012.4
20260906105249 68 17 3.5 15.6 0.00 0.00 0.00 76 1011.9
20260906103759 68 41 5.2 7.8 0.00 0.00 0.00 76 1014.2
20260906102248 68 320 2.6 7.8 0.00 0.00 0.00 76 1014.6
20260906100740 68 2 5.2 17.4 0.00 0.00 0.00 76 1014.1
20260906095250 67 357 5.2 10.4 0.00 0.00 0.00 75 1014.2
20260906093743 66 317 2.6 7.0 0.00 0.00 0.00 74 1015.2
20260906092253 66 290 7.8 12.2 0.00 0.00 0.00 75 1015.5
20260906090746 66 290 10.4 13.9 0.00 0.00 0.00 74 1015.4
20260906085253 68 246 7.0 13.9 0.00 0.00 0.00 73 1015.6
20260906083741 68 278 5.2 5.2 0.00 0.00 0.00 76 1014.6
20260906082252 67 17 1.7 4.3 0.00 0.00 0.00 76 1014.2
20260906080741 68 20 0.0 3.5 0.00 0.00 0.00 75 1014.1
20260906075309 68 32 2.6 6.1 0.00 0.00 0.00 75 1013.7
20260906073801 68 2 1.7 4.3 0.00 0.00 0.00 74 1013.7
20260906072248 69 21 3.5 4.3 0.00 0.00 0.00 73 1013.9
20260906070742 69 357 2.6 7.8 0.00 0.00 0.00 73 1014.1
20260906065250 69 21 0.0 6.1 0.00 0.00 0.00 72 1013.9
20260906063742 69 18 3.5 4.3 0.00 0.00 0.00 71 1013.8
20260906062251 69 354 3.5 6.1 0.00 0.00 0.00 70 1013.9
20260906060740 69 40 0.9 5.2 0.00 0.00 0.00 70 1014.1
20260906055254 70 23 0.9 4.3 0.00 0.00 0.00 70 1014.3
20260906053743 70 4 0.9 4.3 0.00 0.00 0.00 69 1014.4
20260906052256 70 358 0.9 4.3 0.00 0.00 0.00 68 1014.6
20260906050744 70 16 1.7 5.2 0.00 0.00 0.00 67 1014.8
20260906045300 71 9 4.3 7.0 0.00 0.00 0.00 67 1014.8
20260906043749 71 11 6.1 7.8 0.00 0.00 0.00 66 1014.7
20260906042255 71 356 4.3 11.3 0.00 0.00 0.00 65 1014.8
20260906040745 71 354 1.7 10.4 0.00 0.00 0.00 64 1014.8
20260906035254 71 13 7.8 9.6 0.00 0.00 0.00 63 1015.0
20260906033746 71 347 3.5 11.3 0.00 0.00 0.00 63 1015.1
20260906032255 71 350 2.6 8.7 0.00 0.00 0.00 62 1015.1
20260906030759 72 317 3.5 10.4 0.00 0.00 0.00 61 1015.0
20260906025249 72 347 3.5 7.8 0.00 0.00 0.00 60 1014.7
20260906023752 72 340 1.7 7.8 0.00 0.00 0.00 59 1014.6
20260906022306 73 335 5.2 11.3 0.00 0.00 0.00 57 1014.2
20260906020749 74 358 1.7 6.1 0.00 0.00 0.00 55 1014.1
20260906015315 75 331 2.6 8.7 0.00 0.00 0.00 54 1013.8
20260906013742 76 322 7.0 13.9 0.00 0.00 0.00 52 1013.8
20260906012248 78 307 10.4 13.0 0.00 0.00 0.00 50 1013.5
20260906010753 79 312 9.6 18.2 0.00 0.00 0.00 49 1013.4
20260906005244 80 323 13.0 15.6 0.00 0.00 0.00 48 1013.3
20260906003750 81 287 9.6 18.2 0.00 0.00 0.00 47 1013.1
20260906002300 81 294 14.8 20.0 0.00 0.00 0.00 47 1013.0
20260906000744 82 320 10.4 19.1 0.00 0.00 0.00 46 1012.9
20260905235237 84 321 7.0 14.8 0.00 0.00 0.00 45 1012.7
20260905233742 84 320 5.2 9.6 0.00 0.00 0.00 45 1012.8
20260905232251 83 292 5.2 13.0 0.00 0.00 0.00 45 1012.8
20260905230741 84 354 2.6 10.4 0.00 0.00 0.00 44 1012.7
20260905225245 84 321 5.2 11.3 0.00 0.00 0.00 45 1012.8
20260905223754 84 316 6.1 15.6 0.00 0.00 0.00 44 1012.8
20260905222243 83 292 13.9 18.2 0.00 0.00 0.00 45 1012.8
20260905220749 83 304 8.7 15.6 0.00 0.00 0.00 44 1012.8